Terug naar catalogus

FENGYUN 1C DEB

ActiefSSO
NORAD 31150·DEBRIS·🇨🇳 China

Gelanceerd May 10, 1999 vanaf Taiyuan Satellite Launch Center

Loading…

Volgende Passages (komende 24 uur)

TLE

VersSource: Space-Track

Epoch: Sep 14, 2026, 11:40 UTC

1 31150U 99025BHC 26257.48640616  .00000131  00000-0  93396-4 0  9991
2 31150  98.6859 262.8610 0016068  96.8924  56.9153 14.12876678  1876

Volg FENGYUN 1C DEB in realtime met AllMySat

Download on the App Store